CMB857 Details

Departure: Naval Station Rota (LERT)
Arrival: Bahrain International Airport (OBBI) at N/A
Route: MGA2Z MGA A44 AMR A44 MOS A411 ALR A31 BNA J9 BTN J10 TBS P128 TANLI V300 ZAW WLD G659 GS UM999 NAKDO M999 LXR UL604 KFA M691 LADNA LADNA1
Notes: USTRANSCOM CONTRACT FLIGHT


Current Weather Information
LERT 251100Z 14013KT CAVOK 31/18 Q1014 NOSIG
OBBI 251100Z 01012KT CAVOK 38/28 Q1001 NOSIG